Regional Weather Roundup
Issued by NWS

Home | Current Version | Previous Version | Graphics & Text | Print | Product List | Glossary On
Versions: 1 2 3 4 5 6 7 8 9 10 11 12 13 14 15 16 17 18 19 20 21 22 23 24 25 26 27 28
000
ASUS45 KCYS 151910
RWRWY

WYOMING REGIONAL WEATHER ROUNDUP
NATIONAL WEATHER SERVICE CHEYENNE WY
100 PM MDT SUN OCT 15 2017

NOTE:  "FAIR" INDICATES FEW OR NO CLOUDS BELOW 12,000 FEET
WITH NO SIGNIFICANT WEATHER AND/OR OBSTRUCTIONS TO VISIBILITY.

WYZ001-152000-
YELLOWSTONE NATIONAL PARK

CITY           SKY/WX    TMP DP  RH WIND       PRES   REMARKS
LK YELLOWSTONE   N/A     38  21  50 VRB3      30.54F
W YELLOWSTONE  NOT AVBL

$$
WYZ002>013-054>058-071-098>099-152000-
NORTHERN WYOMING

CITY           SKY/WX    TMP DP  RH WIND       PRES   REMARKS
JACKSON        FAIR      36  16  44 S3        30.56F
CODY           FAIR      59  25  27 N9        30.37F
GREYBULL       FAIR      53  24  32 S10       30.40F
WORLAND        FAIR      54  25  32 E8        30.40F
SHERIDAN       FAIR      57  26  30 NE3       30.36F
BUFFALO        FAIR      54  20  26 SE12G20   30.37F
GILLETTE       FAIR      53  24  32 NW3       30.37F
HULETT         FAIR      54  27  35 W8        30.36F
NEWCASTLE      FAIR      52  25  35 NW12G20   30.39F

$$
WYZ014>020-022>026-101>103-152000-
CENTRAL WYOMING

CITY           SKY/WX    TMP DP  RH WIND       PRES   REMARKS
BIG PINEY      FAIR      47  15  27 CALM      30.52F
PINEDALE       FAIR      48  19  32 CALM      30.52F
DUBOIS         FAIR      50  25  37 N20G26    30.45S
LANDER         FAIR      51  26  37 CALM      30.41F
RIVERTON       FAIR      49  26  41 E7        30.42F
CASPER         FAIR      54  21  27 SW14      30.41F
DOUGLAS        FAIR      57  22  25 W13G20    30.40F

$$
WYZ021-027>030-104>119-152000-
SOUTHERN WYOMING

CITY           SKY/WX    TMP DP  RH WIND       PRES   REMARKS
EVANSTON       FAIR      49  19  30 N5        30.52F
KEMMERER       FAIR      48   9  20 W8        30.53F
FORT BRIDGER   FAIR      49  12  22 CALM      30.55F
ROCK SPRINGS   FAIR      48   6  18 W15       30.52F
DIXON          FAIR      53   9  17 S9G20     30.56F
RAWLINS        FAIR      50  12  21 W15G23    30.50F
SARATOGA       FAIR      54  14  20 W16G23    30.50F
LARAMIE        FAIR      55  17  22 W10G21    30.45F
CHEYENNE       FAIR      58  20  22 SE10      30.43F
TORRINGTON     FAIR      58  18  21 NW13      30.40F
PINE BLUFFS    FAIR      59  18  20 NW13G20   30.43S

$$




USA.gov is the U.S. government's official web portal to all federal, state and local government web resources and services.